Date_and_time,latitude,longitude,wind_speed,RelWindDirFrom,WindDirFrom,air_pressure,air_temperature,relative_humidity,Temp,platform_speed_wrt_ground,air_pressure_at_mean_sea_level,platform_orientation
2018-11-30 00:00,50.630445,-96.980785,1.5,1.9,40,980.45,-3.7,100,1.06,0.0,1008.46,246.4
2018-11-30 00:00,50.6304433333333,-96.980785,1.0,1.0,45,980.48,-3.6,100,1.07,0.0,1008.50,0.0
2018-11-30 00:10,50.6304433333333,-96.980785,0.9,1.3,49,980.45,-3.6,100,1.06,0.0,1008.48,0.0
2018-11-30 00:20,50.630445,-96.9807833333333,0.1,0.9,56,980.45,-3.6,100,1.06,0.0,1008.51,0.0
2018-11-30 00:30,50.630445,-96.9808,0.0,0.0,0,980.47,-3.6,100,1.06,0.0,1008.54,0.0
2018-11-30 00:40,50.63044,-96.9807816666667,0.0,0.0,0,980.47,-3.7,100,1.05,0.0,1008.54,0.0
2018-11-30 00:50,50.6304383333333,-96.9807783333333,0.0,0.0,0,980.50,-3.7,100,1.05,0.0,1008.55,0.0
2018-11-30 01:00,50.6304366666667,-96.980775,1.2,2.4,307,980.58,-3.9,100,1.05,0.0,1008.64,125.3
2018-11-30 01:10,50.6304333333333,-96.9807733333333,1.2,1.9,298,980.68,-3.9,100,1.05,0.0,1008.74,125.3
2018-11-30 01:20,50.6304333333333,-96.9807583333333,2.0,2.8,298,980.77,-3.9,99,1.06,0.0,1008.83,125.3
2018-11-30 01:30,50.630445,-96.980825,2.3,3.8,287,980.81,-4.0,99,1.06,0.0,1008.88,125.3
2018-11-30 01:40,50.6304383333333,-96.9807783333333,2.6,3.5,283,980.82,-4.1,99,1.06,0.0,1008.88,125.3
2018-11-30 01:50,50.6304383333333,-96.98077,1.8,2.6,277,980.83,-4.1,99,1.06,0.0,1008.89,125.3
2018-11-30 02:00,50.6304383333333,-96.980775,2.2,3.4,264,980.87,-4.1,99,1.05,0.0,1008.94,90.0
2018-11-30 02:10,50.63044,-96.9807766666667,2.4,3.2,268,980.91,-4.2,99,1.04,0.0,1008.98,90.0
2018-11-30 02:20,50.63044,-96.9807716666667,2.7,3.9,270,980.99,-4.2,99,1.04,0.0,1009.07,90.0
2018-11-30 02:30,50.6304416666667,-96.98077,2.8,4.0,268,981.04,-4.3,99,1.04,0.0,1009.12,90.0
2018-11-30 02:40,50.6304433333333,-96.9807683333333,2.7,3.9,263,981.05,-4.3,99,1.05,0.0,1009.14,90.0
2018-11-30 02:50,50.6304466666667,-96.9807716666667,2.4,3.8,262,981.02,-4.3,99,1.05,0.0,1009.12,90.0
2018-11-30 03:00,50.6304466666667,-96.9807716666667,2.3,4.3,268,981.04,-4.3,99,1.05,0.0,1009.14,54.7
2018-11-30 03:10,50.6304483333333,-96.9807716666667,3.2,4.5,267,981.02,-4.3,99,1.05,0.0,1009.12,54.7
2018-11-30 03:20,50.6304483333333,-96.9807716666667,2.4,4.1,256,981.08,-4.4,99,1.06,0.0,1009.18,54.7
2018-11-30 03:30,50.6304483333333,-96.9807716666667,3.3,4.2,242,981.19,-4.4,99,1.07,0.0,1009.30,54.7
2018-11-30 03:40,50.6304466666667,-96.9807716666667,2.4,3.5,239,981.10,-4.5,99,1.07,0.0,1009.22,54.7
2018-11-30 03:50,50.6304383333333,-96.9807433333333,3.4,4.7,240,981.11,-4.6,99,1.08,0.0,1009.24,54.7
2018-11-30 04:00,50.6304433333333,-96.9807516666667,3.2,4.2,242,981.13,-4.6,99,1.08,0.0,1009.26,68.5
2018-11-30 04:10,50.63045,-96.9807766666667,2.9,4.0,239,981.09,-4.6,99,1.08,0.0,1009.22,68.5
2018-11-30 04:20,50.6304483333333,-96.9807683333333,3.4,5.4,244,981.16,-4.6,99,1.08,0.0,1009.29,68.5
2018-11-30 04:30,50.630445,-96.980765,3.6,5.3,241,981.26,-4.6,99,1.07,0.0,1009.40,68.5
2018-11-30 04:40,50.630445,-96.98076,3.8,5.6,248,981.37,-4.6,99,1.06,0.0,1009.52,68.5
2018-11-30 04:50,50.6304466666667,-96.9807633333333,3.6,5.3,240,981.41,-4.7,99,1.05,0.0,1009.56,68.5
2018-11-30 05:00,50.6304466666667,-96.9807616666667,3.8,5.6,241,981.50,-4.7,99,1.05,0.0,1009.65,60.8
2018-11-30 05:10,50.6304466666667,-96.9807633333333,4.2,5.5,236,981.48,-4.7,99,1.06,0.0,1009.64,60.8
2018-11-30 05:20,50.6304466666667,-96.980765,4.2,5.7,246,981.49,-4.7,99,1.07,0.0,1009.65,60.8
2018-11-30 05:30,50.630425,-96.980755,4.0,5.6,247,981.51,-4.7,99,1.08,0.0,1009.68,60.8
2018-11-30 05:40,50.63045,-96.9807516666667,3.4,5.0,246,981.50,-4.7,99,1.08,0.0,1009.67,60.8
2018-11-30 05:50,50.63045,-96.9807566666667,3.2,4.8,246,981.54,-4.8,99,1.07,0.0,1009.71,60.8
2018-11-30 06:00,50.6304483333333,-96.9807566666667,3.5,5.1,242,981.67,-4.8,99,1.06,0.0,1009.85,90.0
2018-11-30 06:10,50.6304466666667,-96.98076,4.3,6.0,249,981.80,-4.8,99,1.05,0.0,1009.98,90.0
2018-11-30 06:20,50.6304466666667,-96.9807616666667,3.8,5.4,246,981.79,-4.9,99,1.05,0.0,1009.98,90.0
2018-11-30 06:30,50.630435,-96.9807733333333,4.1,5.6,242,981.81,-5.0,99,1.04,0.0,1010.00,90.0
2018-11-30 06:40,50.6304383333333,-96.9807716666667,4.2,5.6,243,981.86,-5.0,99,1.05,0.0,1010.05,90.0
2018-11-30 06:50,50.6304416666667,-96.9807716666667,3.9,5.4,245,981.90,-5.0,99,1.06,0.0,1010.10,90.0
2018-11-30 07:00,50.630445,-96.98077,3.9,6.0,253,981.97,-5.0,99,1.07,0.0,1010.17,270.0
2018-11-30 07:10,50.6304483333333,-96.9807633333333,3.9,5.8,256,981.91,-5.0,99,1.08,0.0,1010.12,270.0
2018-11-30 07:20,50.6304516666667,-96.9807666666667,4.2,5.6,248,981.99,-5.1,99,1.07,0.0,1010.20,270.0
2018-11-30 07:30,50.630455,-96.98077,4.0,5.9,260,982.11,-5.1,99,1.07,0.0,1010.32,270.0
2018-11-30 07:40,50.6304566666667,-96.98077,4.5,6.3,257,982.22,-5.1,99,1.05,0.0,1010.44,270.0
2018-11-30 07:50,50.6304566666667,-96.98077,4.7,7.8,269,982.23,-5.0,99,1.04,0.0,1010.46,270.0
2018-11-30 08:00,50.63043,-96.9807766666667,4.6,6.7,270,982.34,-5.1,99,1.04,0.0,1010.56,194.5
2018-11-30 08:10,50.630455,-96.980775,4.5,6.5,256,982.42,-5.1,99,1.03,0.0,1010.66,194.5
2018-11-30 08:20,50.6304516666667,-96.9807683333333,4.3,7.3,263,982.50,-5.1,99,1.02,0.0,1010.74,194.5
2018-11-30 08:30,50.6304533333333,-96.9807716666667,4.3,6.2,272,982.49,-5.1,99,1.03,0.0,1010.73,194.5
2018-11-30 08:40,50.6304516666667,-96.9807683333333,4.2,7.0,273,982.58,-5.1,99,1.03,0.0,1010.83,194.5
2018-11-30 08:50,50.630455,-96.98077,4.1,5.8,280,982.68,-5.1,99,1.03,0.0,1010.92,194.5
2018-11-30 09:00,50.6304533333333,-96.9807716666667,4.5,6.7,288,982.75,-5.1,99,1.04,0.0,1011.00,299.2
2018-11-30 09:10,50.6304533333333,-96.9807716666667,4.4,5.9,287,982.81,-5.1,99,1.05,0.0,1011.06,299.2
2018-11-30 09:20,50.63046,-96.9807733333333,4.1,6.0,267,982.90,-5.1,99,1.05,0.0,1011.16,299.2
2018-11-30 09:30,50.6304583333333,-96.9807783333333,4.2,5.6,253,983.05,-5.2,99,1.04,0.0,1011.32,299.2
2018-11-30 09:40,50.6304583333333,-96.9807866666667,4.6,7.5,275,983.11,-5.2,99,1.04,0.0,1011.38,299.2
2018-11-30 09:50,50.6304533333333,-96.9807716666667,5.6,8.3,284,983.13,-5.2,99,1.05,0.0,1011.40,299.2
2018-11-30 10:00,50.6304516666667,-96.9807733333333,4.7,7.3,278,983.16,-5.3,99,1.04,0.0,1011.43,360.0
2018-11-30 10:10,50.6304533333333,-96.9807666666667,3.9,6.0,265,983.29,-5.3,99,1.03,0.0,1011.57,360.0
2018-11-30 10:20,50.630455,-96.980765,4.5,6.5,272,983.45,-5.4,99,1.04,0.0,1011.74,360.0
2018-11-30 10:30,50.630455,-96.9807633333333,5.1,7.9,266,983.51,-5.4,99,1.04,0.0,1011.80,360.0
2018-11-30 10:40,50.63045,-96.9807583333333,4.6,6.5,262,983.62,-5.4,99,1.04,0.0,1011.91,360.0
2018-11-30 10:50,50.6304516666667,-96.98076,4.2,5.9,269,983.61,-5.4,99,1.03,0.0,1011.91,360.0
2018-11-30 11:00,50.630455,-96.9807733333333,4.5,6.4,274,983.62,-5.5,99,1.02,0.0,1011.92,9.8
2018-11-30 11:10,50.630455,-96.9807733333333,4.5,6.4,281,983.66,-5.5,99,1.02,0.0,1011.96,9.8
2018-11-30 11:20,50.630455,-96.980775,3.3,5.5,273,983.68,-5.6,99,1.03,0.0,1012.00,9.8
2018-11-30 11:30,50.630455,-96.98077,3.2,4.8,270,983.71,-5.6,99,1.04,0.0,1012.02,9.8
2018-11-30 11:40,50.6304533333333,-96.98077,3.0,4.6,273,983.66,-5.8,99,1.04,0.0,1011.98,9.8
2018-11-30 11:50,50.630455,-96.9807716666667,3.8,4.8,280,983.63,-5.9,99,1.03,0.0,1011.96,9.8
2018-11-30 12:00,50.630455,-96.9807716666667,4.0,5.3,259,983.73,-6.1,99,1.02,0.0,1012.08,0.0
2018-11-30 12:10,50.630455,-96.9807716666667,3.9,5.6,267,983.82,-6.3,99,1.03,0.0,1012.18,0.0
2018-11-30 12:20,50.630455,-96.9807533333333,3.9,5.4,273,983.91,-6.5,100,1.03,0.0,1012.29,0.0
2018-11-30 12:30,50.6304566666667,-96.9807966666667,3.7,4.9,269,984.01,-6.6,100,1.03,0.0,1012.40,0.0
2018-11-30 12:40,50.6304533333333,-96.98078,3.4,4.5,265,984.13,-6.8,100,1.02,0.0,1012.53,0.0
2018-11-30 12:50,50.6304516666667,-96.9807566666667,3.6,5.6,264,984.17,-7.0,100,1.02,0.0,1012.59,0.0
2018-11-30 13:00,50.63045,-96.9807733333333,4.1,5.4,260,984.33,-7.3,100,1.03,0.0,1012.77,0.0
2018-11-30 13:10,50.6304583333333,-96.98077,4.4,6.1,259,984.52,-7.5,100,1.04,0.0,1012.98,0.0
2018-11-30 13:20,50.6304433333333,-96.980775,4.9,6.7,262,984.72,-7.7,100,1.04,0.0,1013.20,0.0
2018-11-30 13:30,50.63045,-96.9807733333333,5.3,6.8,259,984.89,-7.8,100,1.04,0.0,1013.38,0.0
2018-11-30 13:40,50.63045,-96.9807733333333,5.8,7.4,256,984.96,-8.0,100,1.05,0.0,1013.48,0.0
2018-11-30 13:50,50.6304533333333,-96.9807733333333,5.8,7.6,260,985.02,-8.3,100,1.06,0.0,1013.56,0.0
2018-11-30 14:00,50.630455,-96.9807716666667,5.6,7.2,259,985.11,-8.5,100,1.06,0.0,1013.67,0.0
2018-11-30 14:10,50.630455,-96.98077,5.5,6.8,251,985.30,-8.7,100,1.06,0.0,1013.89,0.0
2018-11-30 14:20,50.630455,-96.98077,5.4,6.9,258,985.35,-9.0,100,1.05,0.0,1013.97,0.0
2018-11-30 14:30,50.630455,-96.98077,4.2,5.6,257,985.34,-9.1,100,1.04,0.0,1013.97,0.0
2018-11-30 14:40,50.630455,-96.98077,4.9,6.6,255,985.39,-9.2,100,1.03,0.0,1014.05,0.0
2018-11-30 14:50,50.630455,-96.98077,6.2,8.0,258,985.43,-9.3,100,1.03,0.0,1014.11,0.0
2018-11-30 15:00,50.630455,-96.98077,5.9,7.7,260,985.50,-9.4,99,1.03,0.0,1014.19,90.0
2018-11-30 15:10,50.630455,-96.98077,5.5,7.2,261,985.63,-9.4,99,1.03,0.0,1014.34,90.0
2018-11-30 15:20,50.6304566666667,-96.98077,5.6,6.9,256,985.76,-9.4,99,1.04,0.0,1014.48,90.0
2018-11-30 15:30,50.6304566666667,-96.98077,5.3,7.0,265,985.83,-9.2,99,1.05,0.0,1014.55,90.0
2018-11-30 15:40,50.6304566666667,-96.98077,5.7,8.1,267,985.95,-9.1,99,1.05,0.0,1014.69,90.0
2018-11-30 15:50,50.6304566666667,-96.98077,4.8,6.4,270,985.95,-9.0,99,1.05,0.0,1014.69,90.0
2018-11-30 16:00,50.6304566666667,-96.98077,4.7,6.8,271,985.97,-8.4,99,1.05,0.0,1014.69,90.0
2018-11-30 16:10,50.6304566666667,-96.98077,5.0,7.2,274,986.10,-7.9,99,1.06,0.0,1014.81,90.0
2018-11-30 16:20,50.6304516666667,-96.98078,4.8,7.0,273,986.20,-7.6,99,1.06,0.0,1014.90,90.0
2018-11-30 16:30,50.6304633333333,-96.9807683333333,4.4,6.5,271,986.24,-7.4,99,1.06,0.0,1014.94,90.0
2018-11-30 16:40,50.630465,-96.980765,4.7,7.0,265,986.34,-7.2,99,1.06,0.0,1015.04,90.0
2018-11-30 16:50,50.63046,-96.98077,5.2,7.8,260,986.43,-7.0,99,1.05,0.0,1015.12,90.0
2018-11-30 17:00,50.6304583333333,-96.9807683333333,5.8,7.7,264,986.44,-6.6,99,1.03,0.0,1015.11,12.6
2018-11-30 17:10,50.6304566666667,-96.9807716666667,6.2,8.9,266,986.56,-6.5,99,1.02,0.0,1015.23,12.6
2018-11-30 17:20,50.6304566666667,-96.9807716666667,6.0,9.4,264,986.55,-6.3,99,1.02,0.0,1015.20,12.6
2018-11-30 17:30,50.630455,-96.9807716666667,4.9,8.0,271,986.52,-6.3,99,1.03,0.0,1015.16,12.6
2018-11-30 17:40,50.630455,-96.9807716666667,4.1,6.7,279,986.50,-5.8,99,1.04,0.0,1015.11,12.6
2018-11-30 17:50,50.6304566666667,-96.98077,4.2,6.7,266,986.50,-5.4,97,1.04,0.0,1015.06,12.6
2018-11-30 18:00,50.6304516666667,-96.9807633333333,4.4,5.9,293,986.49,-5.3,97,1.04,0.0,1015.01,90.0
2018-11-30 18:10,50.6304533333333,-96.98077,4.5,7.2,282,986.51,-5.6,98,1.03,0.0,1015.03,90.0
2018-11-30 18:20,50.6304566666667,-96.98077,5.1,7.2,293,986.48,-5.6,98,1.02,0.0,1014.99,90.0
2018-11-30 18:30,50.6304583333333,-96.9807683333333,4.9,7.3,283,986.44,-5.8,99,1.02,0.0,1014.95,90.0
2018-11-30 18:40,50.6304583333333,-96.98077,3.7,5.8,289,986.50,-5.7,98,1.02,0.0,1015.00,90.0
2018-11-30 18:50,50.63046,-96.98077,3.6,5.7,306,986.50,-5.0,94,1.02,0.0,1014.94,90.0
2018-11-30 19:00,50.6304583333333,-96.98077,4.0,6.0,306,986.45,-4.8,92,1.02,0.0,1014.86,360.0
2018-11-30 19:10,50.63046,-96.9807716666667,4.4,6.1,302,986.48,-4.9,92,1.02,0.0,1014.89,360.0
2018-11-30 19:20,50.6304533333333,-96.980755,4.0,5.9,310,986.57,-5.1,93,1.02,0.0,1015.00,360.0
2018-11-30 19:30,50.6304516666667,-96.9807616666667,2.2,4.0,297,986.63,-4.8,90,1.02,0.0,1015.02,360.0
2018-11-30 19:40,50.63045,-96.98076,2.6,4.3,300,986.74,-5.0,92,1.03,0.0,1015.12,360.0
2018-11-30 19:50,50.63045,-96.9807616666667,3.0,4.6,313,986.85,-5.3,94,1.02,0.0,1015.24,360.0
2018-11-30 20:00,50.6304483333333,-96.9807616666667,2.3,4.4,317,986.86,-5.1,93,1.01,0.0,1015.26,165.5
2018-11-30 20:10,50.63045,-96.98076,1.0,3.8,312,986.88,-5.3,93,1.01,0.0,1015.29,165.5
2018-11-30 20:20,50.6304166666667,-96.9807766666667,2.7,4.5,112,986.86,-5.5,99,1.02,0.0,1015.29,165.5
2018-11-30 20:30,50.6304133333333,-96.98077,4.5,5.3,119,986.92,-5.9,99,1.03,0.0,1015.37,165.5
2018-11-30 20:40,50.6304666666667,-96.98078,4.4,5.0,126,986.96,-6.5,99,1.04,0.0,1015.41,165.5
2018-11-30 20:50,50.6304533333333,-96.98077,3.8,4.6,138,987.18,-7.2,99,1.05,0.0,1015.66,165.5
2018-11-30 21:00,50.6304533333333,-96.98076,5.2,7.0,154,987.31,-7.5,99,1.05,0.0,1015.81,90.0
2018-11-30 21:10,50.63045,-96.9807583333333,5.6,6.7,164,987.46,-8.2,99,1.05,0.0,1016.02,90.0
2018-11-30 21:20,50.6304516666667,-96.9807633333333,6.0,7.1,162,987.67,-8.6,99,1.05,0.0,1016.24,90.0
2018-11-30 21:30,50.6304533333333,-96.980765,5.7,6.9,158,987.79,-8.5,99,1.04,0.0,1016.37,90.0
2018-11-30 21:40,50.6304533333333,-96.980765,5.9,7.3,152,987.80,-8.4,99,1.03,0.0,1016.39,90.0
2018-11-30 21:50,50.6304516666667,-96.9807666666667,4.5,5.8,151,988.00,-8.2,99,1.03,0.0,1016.57,90.0
2018-11-30 22:00,50.6304433333333,-96.9807683333333,4.6,5.5,145,988.09,-8.4,99,1.03,0.0,1016.68,360.0
2018-11-30 22:10,50.63044,-96.9808016666667,3.6,4.4,125,988.16,-8.2,99,1.04,0.0,1016.76,360.0
2018-11-30 22:20,50.6304516666667,-96.9807666666667,1.3,3.6,132,988.21,-8.9,99,1.05,0.0,1016.87,360.0
2018-11-30 22:30,50.630445,-96.9807783333333,1.4,2.4,151,988.28,-9.7,99,1.05,0.0,1017.02,360.0
2018-11-30 22:40,50.6304483333333,-96.98078,1.8,2.9,161,988.35,-9.8,99,1.05,0.0,1017.13,360.0
2018-11-30 22:50,50.6304466666667,-96.9807766666667,2.9,3.5,155,988.42,-9.6,100,1.04,0.0,1017.21,360.0
2018-11-30 23:00,50.6304483333333,-96.980775,3.1,3.7,169,988.63,-9.5,100,1.04,0.0,1017.46,270.0
2018-11-30 23:10,50.6304483333333,-96.9807766666667,2.8,3.6,169,988.65,-9.8,100,1.04,0.0,1017.51,270.0
2018-11-30 23:20,50.63043,-96.98077,1.9,3.0,172,988.64,-10.5,99,1.04,0.0,1017.54,270.0
2018-11-30 23:30,50.63046,-96.9807933333333,1.1,2.3,164,988.75,-10.9,99,1.05,0.0,1017.67,270.0
2018-11-30 23:40,50.630455,-96.980785,1.6,2.7,164,988.94,-11.1,99,1.06,0.0,1017.87,270.0
